,,Stat5,,Stat1,,Stat2,,Stat3,,Stat4,,Wind1,,Wind1,
time,status,PA1M_AVG,status,PR1M_SUM,status,RH1M_AVG,status,SR1M_AVG,status,TA1M_AVG,status,W1dAve1m,status,W1sAve1m,
2000-03-29, 00:00:01,VALID,918.329,VALID,0,VALID,97.0234,VALID,-0.0169808,VALID,19.1832,VALID,241,VALID,0.884415,
2000-03-29, 00:01:00,VALID,918.309,VALID,0,VALID,96.9916,VALID,0,VALID,19.1772,VALID,240,VALID,1.08889,
2000-03-29, 00:02:00,VALID,918.287,VALID,0,VALID,97.0361,VALID,-0.0339617,VALID,19.1608,VALID,222,VALID,1.40625,
2000-03-29, 00:03:00,VALID,918.3,VALID,0,VALID,97.1023,VALID,-0.0339617,VALID,19.1352,VALID,229,VALID,1.67863,
2000-03-29, 00:04:00,VALID,918.306,VALID,0,VALID,97.2777,VALID,-0.0339617,VALID,19.1352,VALID,229,VALID,1.39672,
2000-03-29, 00:05:01,VALID,918.287,VALID,0,VALID,97.3324,VALID,-0.0169808,VALID,19.1218,VALID,219,VALID,1.46217,
2000-03-29, 00:06:00,VALID,918.294,VALID,0,VALID,97.4685,VALID,-0.0169808,VALID,19.1186,VALID,225,VALID,2.07874,
2000-03-29, 00:07:00,VALID,918.287,VALID,0,VALID,97.5232,VALID,-0.0339617,VALID,19.1248,VALID,227,VALID,1.88713,
2000-03-29, 00:08:00,VALID,918.277,VALID,0,VALID,97.499,VALID,-0.0339617,VALID,19.1253,VALID,232,VALID,1.77217,
2000-03-29, 00:09:00,VALID,918.273,VALID,0,VALID,97.5435,VALID,0,VALID,19.1578,VALID,220,VALID,1.73498,
2000-03-29, 00:10:00,VALID,918.267,VALID,0,VALID,97.4977,VALID,-0.0339617,VALID,19.1608,VALID,207,VALID,1.45662,
2000-03-29, 00:11:00,VALID,918.273,VALID,0,VALID,97.41,VALID,-0.0509425,VALID,19.1541,VALID,230,VALID,1.0259,
2000-03-29, 00:12:00,VALID,918.278,VALID,0,VALID,97.4303,VALID,-0.0169808,VALID,19.1446,VALID,214,VALID,1.38237,
2000-03-29, 00:13:01,VALID,918.285,VALID,0,VALID,97.485,VALID,-0.0339617,VALID,19.1449,VALID,207,VALID,1.38105,
2000-03-29, 00:14:00,VALID,918.289,VALID,0,VALID,97.499,VALID,-0.0169808,VALID,19.1516,VALID,199,VALID,1.04046,
2000-03-29, 00:15:00,VALID,918.309,VALID,0,VALID,97.4939,VALID,-0.0509425,VALID,19.1347,VALID,215,VALID,0.841216,
2000-03-29, 00:16:01,VALID,918.316,VALID,0,VALID,97.555,VALID,-0.0169808,VALID,19.1409,VALID,220,VALID,0.655248,
2000-03-29, 00:17:00,VALID,918.315,VALID,0,VALID,97.5893,VALID,0,VALID,19.1412,VALID,221,VALID,0.741365,
2000-03-29, 00:18:00,VALID,918.313,VALID,0,VALID,97.5906,VALID,-0.0679233,VALID,19.1317,VALID,217,VALID,0.533253,
2000-03-29, 00:19:00,VALID,918.31,VALID,0,VALID,97.5689,VALID,-0.0849042,VALID,19.1357,VALID,217,VALID,0.641768,
2000-03-29, 00:20:00,VALID,918.312,VALID,0,VALID,97.541,VALID,-0.0509425,VALID,19.1262,VALID,249,VALID,0.229968,
2000-03-29, 00:21:01,VALID,918.305,VALID,0,VALID,97.5664,VALID,0.0169808,VALID,19.1019,VALID,216,VALID,0.591452,
2000-03-29, 00:22:01,VALID,918.297,VALID,0,VALID,97.6452,VALID,0.0169808,VALID,19.1158,VALID,202,VALID,0.419727,
2000-03-29, 00:23:00,VALID,918.277,VALID,0,VALID,97.588,VALID,0.0169808,VALID,19.1026,VALID,223,VALID,0.0152027,
2000-03-29, 00:24:00,VALID,918.275,VALID,0,VALID,97.6948,VALID,0.0169808,VALID,19.1054,VALID,196,VALID,0.788086,
2000-03-29, 00:25:00,VALID,918.28,VALID,0,VALID,97.6529,VALID,0,VALID,19.1089,VALID,166,VALID,0.498598,
2000-03-29, 00:26:01,VALID,918.28,VALID,0,VALID,97.5397,VALID,0,VALID,19.1253,VALID,166,VALID,0.554306,
2000-03-29, 00:27:00,VALID,918.286,VALID,0,VALID,97.4939,VALID,0,VALID,19.1158,VALID,174,VALID,0.500633,
2000-03-29, 00:28:00,VALID,918.281,VALID,0,VALID,97.6185,VALID,-0.0169808,VALID,19.1285,VALID,210,VALID,0.605569,
2000-03-29, 00:29:00,VALID,918.289,VALID,0,VALID,97.6147,VALID,0,VALID,19.1382,VALID,250,VALID,0.149962,
2000-03-29, 00:30:00,VALID,918.283,VALID,0,VALID,97.6211,VALID,0,VALID,19.1476,VALID,225,VALID,0.132401,
2000-03-29, 00:31:00,VALID,918.285,VALID,0,VALID,97.616,VALID,0,VALID,19.1476,VALID,207,VALID,0.213542,
2000-03-29, 00:32:01,VALID,918.279,VALID,0,VALID,97.5918,VALID,0,VALID,19.1476,VALID,195,VALID,0,
2000-03-29, 00:33:00,VALID,918.276,VALID,0,VALID,97.5969,VALID,0.0169808,VALID,19.1446,VALID,189,VALID,0.155869,
2000-03-29, 00:34:00,VALID,918.248,VALID,0,VALID,97.6541,VALID,0,VALID,19.1543,VALID,201,VALID,0.648237,
2000-03-29, 00:35:00,VALID,918.227,VALID,0,VALID,97.6224,VALID,0.0169808,VALID,19.164,VALID,201,VALID,0.0718316,
2000-03-29, 00:36:00,VALID,918.215,VALID,0,VALID,97.63,VALID,0.0339617,VALID,19.1707,VALID,205,VALID,0,
2000-03-29, 00:37:00,VALID,918.196,VALID,0,VALID,97.6745,VALID,0,VALID,19.1571,VALID,215,VALID,0,
2000-03-29, 00:38:00,VALID,918.173,VALID,0,VALID,97.705,VALID,0.0169808,VALID,19.1568,VALID,237,VALID,0,
2000-03-29, 00:39:00,VALID,918.155,VALID,0,VALID,97.6541,VALID,0,VALID,19.1643,VALID,236,VALID,0,
2000-03-29, 00:40:00,VALID,918.155,VALID,0,VALID,97.6605,VALID,0,VALID,19.1707,VALID,238,VALID,0.118032,
2000-03-29, 00:41:00,VALID,918.14,VALID,0,VALID,97.7139,VALID,0,VALID,19.167,VALID,210,VALID,0.274465,
2000-03-29, 00:42:01,VALID,918.147,VALID,0,VALID,97.6808,VALID,-0.0169808,VALID,19.1802,VALID,198,VALID,0,
2000-03-29, 00:43:00,VALID,918.127,VALID,0,VALID,97.6313,VALID,-0.0169808,VALID,19.1735,VALID,205,VALID,0,
2000-03-29, 00:44:00,VALID,918.115,VALID,0,VALID,97.5753,VALID,-0.0339617,VALID,19.1541,VALID,198,VALID,0,
2000-03-29, 00:45:00,VALID,918.102,VALID,0,VALID,97.6007,VALID,0,VALID,19.1576,VALID,189,VALID,0.473242,
2000-03-29, 00:46:00,VALID,918.089,VALID,0,VALID,97.5842,VALID,0,VALID,19.1509,VALID,183,VALID,0.604601,
2000-03-29, 00:47:01,VALID,918.069,VALID,0,VALID,97.5918,VALID,-0.0169808,VALID,19.1278,VALID,205,VALID,0.729367,
2000-03-29, 00:48:00,VALID,918.066,VALID,0,VALID,97.7381,VALID,0,VALID,19.1282,VALID,229,VALID,0.751562,
2000-03-29, 00:49:00,VALID,918.048,VALID,0,VALID,97.7877,VALID,0,VALID,19.1317,VALID,226,VALID,1.06133,
2000-03-29, 00:50:00,VALID,918.046,VALID,0,VALID,97.822,VALID,0,VALID,19.1285,VALID,219,VALID,1.4373,
2000-03-29, 00:51:00,VALID,918.041,VALID,0,VALID,97.8614,VALID,0,VALID,19.1285,VALID,216,VALID,1.25549,
2000-03-29, 00:52:00,VALID,918.035,VALID,0,VALID,97.8932,VALID,0,VALID,19.1317,VALID,215,VALID,1.35488,
2000-03-29, 00:53:00,VALID,918.049,VALID,0,VALID,97.9453,VALID,-0.0169808,VALID,19.1416,VALID,218,VALID,1.20625,
2000-03-29, 00:54:01,VALID,918.06,VALID,0,VALID,97.9212,VALID,0,VALID,19.1416,VALID,201,VALID,1.23775,
2000-03-29, 00:55:01,VALID,918.063,VALID,0,VALID,97.9072,VALID,0.0169808,VALID,19.164,VALID,212,VALID,0.984612,
2000-03-29, 00:56:00,VALID,918.065,VALID,0,VALID,97.8563,VALID,0,VALID,19.1834,VALID,223,VALID,1.07692,
2000-03-29, 00:57:01,VALID,918.051,VALID,0,VALID,97.8385,VALID,-0.0169808,VALID,19.2129,VALID,239,VALID,0.883614,
2000-03-29, 00:58:01,VALID,918.051,VALID,0,VALID,97.7152,VALID,-0.0169808,VALID,19.2348,VALID,224,VALID,0.656641,
2000-03-29, 00:59:00,VALID,918.035,VALID,0,VALID,97.5626,VALID,0,VALID,19.2316,VALID,202,VALID,0.699119,
2000-03-29, 01:00:00,VALID,918.032,VALID,0,VALID,97.4774,VALID,0,VALID,19.2415,VALID,185,VALID,0.0727896,
2000-03-29, 01:01:00,VALID,918.026,VALID,0,VALID,97.4927,VALID,0,VALID,19.2284,VALID,186,VALID,0.420819,
2000-03-29, 01:02:00,VALID,918.009,VALID,0,VALID,97.5066,VALID,0,VALID,19.2251,VALID,162,VALID,0.666667,
2000-03-29, 01:03:00,VALID,918.004,VALID,0,VALID,97.4965,VALID,0,VALID,19.209,VALID,177,VALID,0.998047,
2000-03-29, 01:04:00,VALID,917.996,VALID,0,VALID,97.4125,VALID,0,VALID,19.2122,VALID,156,VALID,0.520579,
2000-03-29, 01:05:00,VALID,917.984,VALID,0,VALID,97.4011,VALID,0,VALID,19.1896,VALID,197,VALID,0.764672,
2000-03-29, 01:06:00,VALID,917.976,VALID,0,VALID,97.4558,VALID,0,VALID,19.1931,VALID,191,VALID,0.671474,
2000-03-29, 01:07:00,VALID,917.971,VALID,0,VALID,97.513,VALID,-0.0169808,VALID,19.1896,VALID,197,VALID,0.609766,
2000-03-29, 01:08:00,VALID,917.979,VALID,0,VALID,97.5283,VALID,0,VALID,19.1794,VALID,215,VALID,0.523047,
2000-03-29, 01:09:00,VALID,917.975,VALID,0,VALID,97.5613,VALID,0,VALID,19.1926,VALID,226,VALID,0.562099,
2000-03-29, 01:10:00,VALID,917.972,VALID,0,VALID,97.6046,VALID,0,VALID,19.2028,VALID,224,VALID,0.737995,
2000-03-29, 01:11:00,VALID,917.957,VALID,0,VALID,97.6427,VALID,0,VALID,19.1961,VALID,223,VALID,0.878906,
2000-03-29, 01:12:00,VALID,917.963,VALID,0,VALID,97.6529,VALID,0,VALID,19.2095,VALID,222,VALID,0.820964,
2000-03-29, 01:13:00,VALID,917.94,VALID,0,VALID,97.6681,VALID,-0.0169808,VALID,19.2062,VALID,222,VALID,0.698396,
2000-03-29, 01:14:00,VALID,917.928,VALID,0,VALID,97.6796,VALID,-0.0339617,VALID,19.206,VALID,217,VALID,0.86287,
2000-03-29, 01:15:00,VALID,917.919,VALID,0,VALID,97.691,VALID,-0.0169808,VALID,19.1931,VALID,212,VALID,0.816501,
2000-03-29, 01:16:00,VALID,917.892,VALID,0,VALID,97.6986,VALID,-0.0339617,VALID,19.1799,VALID,202,VALID,0.638158,
2000-03-29, 01:17:01,VALID,917.875,VALID,0,VALID,97.7673,VALID,0,VALID,19.1702,VALID,190,VALID,0.615986,
2000-03-29, 01:18:00,VALID,917.844,VALID,0,VALID,97.8233,VALID,-0.0169808,VALID,19.1605,VALID,178,VALID,0.837891,
2000-03-29, 01:19:01,VALID,917.823,VALID,0,VALID,97.8551,VALID,-0.0339617,VALID,19.1675,VALID,187,VALID,0.826122,
2000-03-29, 01:20:00,VALID,917.812,VALID,0,VALID,97.8309,VALID,0,VALID,19.1735,VALID,194,VALID,0.752956,
2000-03-29, 01:21:00,VALID,917.796,VALID,0,VALID,97.7584,VALID,-0.0509425,VALID,19.17,VALID,205,VALID,0.831055,
2000-03-29, 01:22:00,VALID,917.787,VALID,0,VALID,97.7343,VALID,-0.0169808,VALID,19.1804,VALID,211,VALID,1.04507,
2000-03-29, 01:23:00,VALID,917.777,VALID,0,VALID,97.7241,VALID,-0.0509425,VALID,19.1806,VALID,211,VALID,0.955025,
2000-03-29, 01:24:01,VALID,917.783,VALID,0,VALID,97.7203,VALID,-0.0339617,VALID,19.1638,VALID,205,VALID,0.71895,
2000-03-29, 01:25:00,VALID,917.778,VALID,0,VALID,97.7571,VALID,-0.0509425,VALID,19.1576,VALID,205,VALID,0.790234,
2000-03-29, 01:26:00,VALID,917.791,VALID,0,VALID,97.7851,VALID,-0.0509425,VALID,19.1605,VALID,203,VALID,0.648838,
2000-03-29, 01:27:00,VALID,917.791,VALID,0,VALID,97.7343,VALID,-0.0169808,VALID,19.1638,VALID,222,VALID,0.40605,
2000-03-29, 01:28:00,VALID,917.802,VALID,0,VALID,97.761,VALID,-0.0169808,VALID,19.1608,VALID,229,VALID,0.546675,
2000-03-29, 01:29:00,VALID,917.814,VALID,0,VALID,97.7635,VALID,-0.0339617,VALID,19.164,VALID,227,VALID,0.141544,
2000-03-29, 01:30:01,VALID,917.814,VALID,0,VALID,97.7241,VALID,-0.0169808,VALID,19.1414,VALID,213,VALID,0.00120192,
2000-03-29, 01:31:00,VALID,917.798,VALID,0,VALID,97.7432,VALID,0,VALID,19.1382,VALID,225,VALID,0,
2000-03-29, 01:32:00,VALID,917.793,VALID,0,VALID,97.7864,VALID,-0.0339617,VALID,19.1119,VALID,220,VALID,0.00214844,
2000-03-29, 01:33:00,VALID,917.775,VALID,0,VALID,97.8563,VALID,-0.0339617,VALID,19.1158,VALID,224,VALID,0.786595,
2000-03-29, 01:34:01,VALID,917.756,VALID,0,VALID,97.8843,VALID,-0.0679233,VALID,19.0826,VALID,227,VALID,1.05301,
2000-03-29, 01:35:00,VALID,917.746,VALID,0,VALID,97.986,VALID,-0.0169808,VALID,19.0959,VALID,230,VALID,1.24692,
2000-03-29, 01:36:01,VALID,917.738,VALID,0,VALID,97.9186,VALID,-0.0169808,VALID,19.0994,VALID,233,VALID,1.13502,
2000-03-29, 01:37:00,VALID,917.726,VALID,0,VALID,97.9504,VALID,-0.0169808,VALID,19.1061,VALID,223,VALID,0.799609,
2000-03-29, 01:38:00,VALID,917.71,VALID,0,VALID,97.9898,VALID,-0.0339617,VALID,19.0992,VALID,222,VALID,1.33945,
2000-03-29, 01:39:00,VALID,917.676,VALID,0,VALID,98.0077,VALID,-0.0169808,VALID,19.0897,VALID,217,VALID,1.19692,
2000-03-29, 01:40:00,VALID,917.639,VALID,0,VALID,98.0331,VALID,-0.0339617,VALID,19.0796,VALID,228,VALID,1.14412,
2000-03-29, 01:41:01,VALID,917.616,VALID,0,VALID,98.056,VALID,-0.0509425,VALID,19.0803,VALID,220,VALID,0.619792,
2000-03-29, 01:42:00,VALID,917.582,VALID,0,VALID,98.07,VALID,-0.0679233,VALID,19.0706,VALID,209,VALID,0.592448,
2000-03-29, 01:43:01,VALID,917.575,VALID,0,VALID,98.1285,VALID,-0.0679233,VALID,19.0803,VALID,202,VALID,0.738387,
2000-03-29, 01:44:00,VALID,917.557,VALID,0,VALID,98.1806,VALID,-0.0679233,VALID,19.0704,VALID,199,VALID,0.608203,
2000-03-29, 01:45:01,VALID,917.564,VALID,0,VALID,98.2162,VALID,-0.0509425,VALID,19.0902,VALID,194,VALID,0.703348,
2000-03-29, 01:46:01,VALID,917.558,VALID,0,VALID,98.2073,VALID,-0.0509425,VALID,19.0897,VALID,211,VALID,0.353674,
2000-03-29, 01:47:00,VALID,917.539,VALID,0,VALID,98.2048,VALID,-0.0509425,VALID,19.1292,VALID,232,VALID,0.66887,
2000-03-29, 01:48:00,VALID,917.526,VALID,0,VALID,98.1602,VALID,-0.0339617,VALID,19.1513,VALID,239,VALID,0.228824,
2000-03-29, 01:49:01,VALID,917.492,VALID,0,VALID,98.1005,VALID,-0.0509425,VALID,19.167,VALID,232,VALID,0,
2000-03-29, 01:50:01,VALID,917.479,VALID,0,VALID,97.9911,VALID,0,VALID,19.2,VALID,233,VALID,0,
2000-03-29, 01:51:00,VALID,917.449,VALID,0,VALID,97.8856,VALID,-0.0509425,VALID,19.2028,VALID,242,VALID,0,
2000-03-29, 01:52:01,VALID,917.417,VALID,0,VALID,97.6529,VALID,-0.0339617,VALID,19.1926,VALID,200,VALID,0,
2000-03-29, 01:53:01,VALID,917.393,VALID,0,VALID,97.4303,VALID,0,VALID,19.1608,VALID,180,VALID,0,
2000-03-29, 01:54:01,VALID,917.358,VALID,0,VALID,97.3464,VALID,0.0169808,VALID,19.1086,VALID,159,VALID,0,
2000-03-29, 01:55:01,VALID,917.353,VALID,0,VALID,97.3273,VALID,-0.0679233,VALID,19.083,VALID,134,VALID,0,
2000-03-29, 01:56:01,VALID,917.331,VALID,0,VALID,97.4545,VALID,-0.0339617,VALID,19.0637,VALID,134,VALID,0,
2000-03-29, 01:57:01,VALID,917.335,VALID,0,VALID,97.6262,VALID,0,VALID,19.0443,VALID,134,VALID,0,
2000-03-29, 01:58:01,VALID,917.31,VALID,0,VALID,97.7838,VALID,-0.0169808,VALID,19.0477,VALID,140,VALID,0,
2000-03-29, 01:59:01,VALID,917.31,VALID,0,VALID,97.9352,VALID,-0.0169808,VALID,19.0403,VALID,149,VALID,0,
2000-03-29, 02:00:01,VALID,917.289,VALID,0,VALID,98.0102,VALID,0,VALID,19.057,VALID,169,VALID,0,
2000-03-29, 02:01:01,VALID,917.277,VALID,0,VALID,97.9937,VALID,-0.0169808,VALID,19.0567,VALID,182,VALID,0,
2000-03-29, 02:02:01,VALID,917.279,VALID,0,VALID,98.0077,VALID,0,VALID,19.0696,VALID,183,VALID,0,
2000-03-29, 02:03:01,VALID,917.273,VALID,0,VALID,98.0394,VALID,-0.0169808,VALID,19.1022,VALID,185,VALID,0,
2000-03-29, 02:04:01,VALID,917.272,VALID,0,VALID,97.9695,VALID,-0.0339617,VALID,19.128,VALID,187,VALID,0,
2000-03-29, 02:05:01,VALID,917.273,VALID,0,VALID,97.7737,VALID,-0.0169808,VALID,19.1536,VALID,176,VALID,0,
2000-03-29, 02:06:01,VALID,917.274,VALID,0,VALID,97.5295,VALID,0,VALID,19.1511,VALID,174,VALID,0,
2000-03-29, 02:07:01,VALID,917.275,VALID,0,VALID,97.5333,VALID,-0.0679233,VALID,19.1536,VALID,174,VALID,0,
2000-03-29, 02:08:01,VALID,917.272,VALID,0,VALID,97.4927,VALID,-0.0339617,VALID,19.1511,VALID,174,VALID,0,
2000-03-29, 02:09:01,VALID,917.275,VALID,0,VALID,97.4977,VALID,0,VALID,19.1573,VALID,174,VALID,0,
2000-03-29, 02:10:01,VALID,917.273,VALID,0,VALID,97.5461,VALID,-0.0679233,VALID,19.1511,VALID,133,VALID,0,
2000-03-29, 02:11:01,VALID,917.282,VALID,0,VALID,97.4176,VALID,-0.0339617,VALID,19.1253,VALID,99,VALID,0,
2000-03-29, 02:12:01,VALID,917.287,VALID,0,VALID,97.2816,VALID,-0.0169808,VALID,19.0736,VALID,95,VALID,0,
2000-03-29, 02:13:01,VALID,917.292,VALID,0,VALID,97.3935,VALID,0,VALID,19.0316,VALID,92,VALID,0,
2000-03-29, 02:14:00,VALID,917.297,VALID,0,VALID,97.5194,VALID,-0.0169808,VALID,18.9926,VALID,99,VALID,0,
2000-03-29, 02:15:00,VALID,917.303,VALID,0,VALID,97.658,VALID,-0.0169808,VALID,18.9702,VALID,100,VALID,0,
2000-03-29, 02:16:00,VALID,917.318,VALID,0,VALID,97.6821,VALID,-0.0169808,VALID,18.9315,VALID,104,VALID,0,
2000-03-29, 02:17:00,VALID,917.314,VALID,0,VALID,97.8004,VALID,-0.0169808,VALID,18.9188,VALID,99,VALID,0,
2000-03-29, 02:18:00,VALID,917.301,VALID,0,VALID,98.0191,VALID,-0.0169808,VALID,18.9315,VALID,93,VALID,0,
2000-03-29, 02:19:00,VALID,917.294,VALID,0,VALID,98.1412,VALID,-0.0339617,VALID,18.9056,VALID,94,VALID,0,
2000-03-29, 02:20:00,VALID,917.281,VALID,0,VALID,98.2467,VALID,-0.0509425,VALID,18.8957,VALID,93,VALID,0,
2000-03-29, 02:21:00,VALID,917.272,VALID,0,VALID,98.323,VALID,0.0679233,VALID,18.9012,VALID,85,VALID,0,
2000-03-29, 02:22:00,VALID,917.271,VALID,0,VALID,98.4018,VALID,0.0849042,VALID,18.898,VALID,84,VALID,0,
2000-03-29, 02:23:00,VALID,917.255,VALID,0,VALID,98.4705,VALID,0.0849042,VALID,18.9079,VALID,84,VALID,0,
2000-03-29, 02:24:00,VALID,917.243,VALID,0,VALID,98.5379,VALID,0.0679233,VALID,18.8943,VALID,84,VALID,0,
2000-03-29, 02:25:00,VALID,917.249,VALID,0,VALID,98.5926,VALID,0.0849042,VALID,18.9042,VALID,71,VALID,0,
2000-03-29, 02:26:00,VALID,917.241,VALID,0,VALID,98.6511,VALID,0.0509425,VALID,18.8977,VALID,70,VALID,0,
2000-03-29, 02:27:00,VALID,917.249,VALID,0,VALID,98.6956,VALID,0.0509425,VALID,18.9007,VALID,70,VALID,0,
2000-03-29, 02:28:00,VALID,917.242,VALID,0,VALID,98.6956,VALID,0.0509425,VALID,18.8977,VALID,70,VALID,0,
2000-03-29, 02:29:00,VALID,917.234,VALID,0,VALID,98.721,VALID,0.0679233,VALID,18.8913,VALID,70,VALID,0,
2000-03-29, 02:30:00,VALID,917.232,VALID,0,VALID,98.7579,VALID,0.0509425,VALID,18.8883,VALID,70,VALID,0,
2000-03-29, 02:31:00,VALID,917.225,VALID,0,VALID,98.8024,VALID,0.0849042,VALID,18.898,VALID,70,VALID,0,
2000-03-29, 02:32:00,VALID,917.209,VALID,0,VALID,98.8431,VALID,0.0679233,VALID,18.8948,VALID,80,VALID,0,
2000-03-29, 02:33:00,VALID,917.217,VALID,0,VALID,98.8851,VALID,0.0849042,VALID,18.9077,VALID,156,VALID,0,
2000-03-29, 02:34:00,VALID,917.217,VALID,0,VALID,98.9079,VALID,0.0509425,VALID,18.9181,VALID,188,VALID,0,
2000-03-29, 02:35:00,VALID,917.214,VALID,0,VALID,98.9334,VALID,0.0169808,VALID,18.9109,VALID,203,VALID,0,
2000-03-29, 02:36:00,VALID,917.209,VALID,0,VALID,98.9321,VALID,-0.0169808,VALID,18.9188,VALID,203,VALID,0,
2000-03-29, 02:37:00,VALID,917.202,VALID,0,VALID,98.9436,VALID,-0.0169808,VALID,18.9255,VALID,212,VALID,0,
2000-03-29, 02:38:00,VALID,917.191,VALID,0,VALID,98.9499,VALID,0.0169808,VALID,18.9248,VALID,303,VALID,0,
2000-03-29, 02:39:00,VALID,917.196,VALID,0,VALID,98.9957,VALID,-0.0169808,VALID,18.9248,VALID,346,VALID,0,
2000-03-29, 02:40:00,VALID,917.199,VALID,0,VALID,99.0211,VALID,-0.0339617,VALID,18.9315,VALID,344,VALID,0,
2000-03-29, 02:41:00,VALID,917.193,VALID,0,VALID,99.0148,VALID,-0.0849042,VALID,18.9029,VALID,343,VALID,0,
2000-03-29, 02:42:00,VALID,917.194,VALID,0,VALID,99.0275,VALID,-0.0169808,VALID,18.877,VALID,344,VALID,0,
2000-03-29, 02:43:00,VALID,917.19,VALID,0,VALID,99.0694,VALID,-0.0339617,VALID,18.8741,VALID,331,VALID,0,
2000-03-29, 02:44:00,VALID,917.177,VALID,0,VALID,99.0809,VALID,-0.0339617,VALID,18.8475,VALID,321,VALID,0,
2000-03-29, 02:45:00,VALID,917.179,VALID,0,VALID,99.1152,VALID,0,VALID,18.8443,VALID,305,VALID,0,
2000-03-29, 02:46:00,VALID,917.159,VALID,0,VALID,99.1419,VALID,-0.0509425,VALID,18.8482,VALID,311,VALID,0,
2000-03-29, 02:47:00,VALID,917.153,VALID,0,VALID,99.1648,VALID,-0.0679233,VALID,18.8346,VALID,312,VALID,0,
2000-03-29, 02:48:00,VALID,917.136,VALID,0,VALID,99.1902,VALID,0,VALID,18.8212,VALID,312,VALID,0,
2000-03-29, 02:49:00,VALID,917.116,VALID,0,VALID,99.2068,VALID,-0.101885,VALID,18.8217,VALID,312,VALID,0,
2000-03-29, 02:50:00,VALID,917.114,VALID,0,VALID,99.236,VALID,-0.0339617,VALID,18.8249,VALID,312,VALID,0,
2000-03-29, 02:51:00,VALID,917.104,VALID,0,VALID,99.2513,VALID,-0.0509425,VALID,18.8217,VALID,312,VALID,0,
2000-03-29, 02:52:00,VALID,917.097,VALID,0,VALID,99.2729,VALID,-0.0169808,VALID,18.8187,VALID,312,VALID,0,
2000-03-29, 02:53:00,VALID,917.096,VALID,0,VALID,99.2843,VALID,-0.0509425,VALID,18.8254,VALID,307,VALID,0,
2000-03-29, 02:54:00,VALID,917.073,VALID,0,VALID,99.2805,VALID,0,VALID,18.8023,VALID,259,VALID,0,
2000-03-29, 02:55:00,VALID,917.072,VALID,0,VALID,99.2665,VALID,0,VALID,18.7831,VALID,234,VALID,0,
2000-03-29, 02:56:00,VALID,917.049,VALID,0,VALID,99.2653,VALID,0,VALID,18.7601,VALID,226,VALID,0,
2000-03-29, 02:57:00,VALID,917.034,VALID,0,VALID,99.2589,VALID,-0.0339617,VALID,18.7474,VALID,230,VALID,0,
2000-03-29, 02:58:00,VALID,917.035,VALID,0,VALID,99.2869,VALID,0,VALID,18.7213,VALID,235,VALID,0,
2000-03-29, 02:59:00,VALID,917.044,VALID,0,VALID,99.3085,VALID,-0.0169808,VALID,18.7218,VALID,232,VALID,0,
2000-03-29, 03:00:00,VALID,917.063,VALID,0,VALID,99.3238,VALID,-0.0169808,VALID,18.7116,VALID,247,VALID,0,
2000-03-29, 03:01:00,VALID,917.095,VALID,0,VALID,99.3301,VALID,-0.0509425,VALID,18.7089,VALID,292,VALID,0,
2000-03-29, 03:02:00,VALID,917.116,VALID,0,VALID,99.367,VALID,-0.0339617,VALID,18.7086,VALID,68,VALID,0.110853,
2000-03-29, 03:03:00,VALID,917.131,VALID,0,VALID,99.3912,VALID,-0.0509425,VALID,18.7183,VALID,85,VALID,1.30391,
2000-03-29, 03:04:00,VALID,917.149,VALID,0,VALID,99.3683,VALID,-0.0509425,VALID,18.7029,VALID,88,VALID,1.20974,
2000-03-29, 03:05:00,VALID,917.151,VALID,0,VALID,99.3797,VALID,-0.0339617,VALID,18.6893,VALID,95,VALID,1.24852,
2000-03-29, 03:06:00,VALID,917.149,VALID,0,VALID,99.4064,VALID,0.0339617,VALID,18.7017,VALID,85,VALID,1.04187,
2000-03-29, 03:07:00,VALID,917.136,VALID,0,VALID,99.4369,VALID,0.0679233,VALID,18.701,VALID,65,VALID,0.596875,
2000-03-29, 03:08:00,VALID,917.114,VALID,0,VALID,99.4598,VALID,0.101885,VALID,18.7134,VALID,76,VALID,0.1248,
2000-03-29, 03:09:00,VALID,917.094,VALID,0,VALID,99.4687,VALID,0.0509425,VALID,18.7171,VALID,92,VALID,0,
2000-03-29, 03:10:00,VALID,917.08,VALID,0,VALID,99.4662,VALID,0.0679233,VALID,18.7109,VALID,83,VALID,0,
2000-03-29, 03:11:00,VALID,917.064,VALID,0,VALID,99.456,VALID,0.0509425,VALID,18.6878,VALID,51,VALID,0,
2000-03-29, 03:12:00,VALID,917.057,VALID,0,VALID,99.4853,VALID,0.0679233,VALID,18.7077,VALID,343,VALID,0,
2000-03-29, 03:13:00,VALID,917.05,VALID,0,VALID,99.5069,VALID,0.0849042,VALID,18.7137,VALID,319,VALID,0,
2000-03-29, 03:14:00,VALID,917.037,VALID,0,VALID,99.5285,VALID,0.0679233,VALID,18.7298,VALID,355,VALID,0,
2000-03-29, 03:15:00,VALID,917.038,VALID,0,VALID,99.5196,VALID,0.0679233,VALID,18.7236,VALID,108,VALID,0,
2000-03-29, 03:16:00,VALID,917.042,VALID,0,VALID,99.4764,VALID,0.0509425,VALID,18.6752,VALID,115,VALID,0,
2000-03-29, 03:17:00,VALID,917.033,VALID,0,VALID,99.4573,VALID,0.0509425,VALID,18.6563,VALID,138,VALID,0,
2000-03-29, 03:18:00,VALID,917.041,VALID,0,VALID,99.4382,VALID,0.0169808,VALID,18.6173,VALID,165,VALID,0,
2000-03-29, 03:19:00,VALID,917.028,VALID,0,VALID,99.4369,VALID,0.0169808,VALID,18.585,VALID,179,VALID,0,
2000-03-29, 03:20:00,VALID,917.039,VALID,0,VALID,99.4458,VALID,0.0339617,VALID,18.5658,VALID,193,VALID,0,
2000-03-29, 03:21:00,VALID,917.039,VALID,0,VALID,99.4433,VALID,-0.0339617,VALID,18.5543,VALID,193,VALID,0,
2000-03-29, 03:22:00,VALID,917.048,VALID,0,VALID,99.4789,VALID,-0.0679233,VALID,18.5446,VALID,193,VALID,0,
2000-03-29, 03:23:00,VALID,917.046,VALID,0,VALID,99.4967,VALID,-0.0679233,VALID,18.5349,VALID,193,VALID,0,
2000-03-29, 03:24:00,VALID,917.038,VALID,0,VALID,99.5145,VALID,-0.0679233,VALID,18.5216,VALID,193,VALID,0,
2000-03-29, 03:25:00,VALID,917.032,VALID,0,VALID,99.5336,VALID,-0.0679233,VALID,18.5345,VALID,193,VALID,0,
2000-03-29, 03:26:00,VALID,917.013,VALID,0,VALID,99.5361,VALID,-0.101885,VALID,18.528,VALID,193,VALID,0,
2000-03-29, 03:27:00,VALID,917.002,VALID,0,VALID,99.559,VALID,-0.0509425,VALID,18.5248,VALID,193,VALID,0,
2000-03-29, 03:28:00,VALID,917,VALID,0,VALID,99.5768,VALID,-0.0169808,VALID,18.5476,VALID,193,VALID,0,
2000-03-29, 03:29:00,VALID,916.993,VALID,0,VALID,99.5755,VALID,-0.0509425,VALID,18.5379,VALID,193,VALID,0,
2000-03-29, 03:30:00,VALID,916.983,VALID,0,VALID,99.5654,VALID,-0.0509425,VALID,18.5347,VALID,193,VALID,0,
2000-03-29, 03:31:00,VALID,916.984,VALID,0,VALID,99.5527,VALID,-0.0679233,VALID,18.525,VALID,193,VALID,0,
2000-03-29, 03:32:00,VALID,916.997,VALID,0,VALID,99.5488,VALID,-0.0339617,VALID,18.4955,VALID,187,VALID,0,
2000-03-29, 03:33:00,VALID,917.015,VALID,0,VALID,99.573,VALID,-0.0509425,VALID,18.4897,VALID,250,VALID,0,
2000-03-29, 03:34:00,VALID,917.036,VALID,0,VALID,99.6277,VALID,-0.0509425,VALID,18.5511,VALID,293,VALID,0,
2000-03-29, 03:35:00,VALID,917.046,VALID,0,VALID,99.6658,VALID,-0.0339617,VALID,18.5898,VALID,295,VALID,0,
2000-03-29, 03:36:00,VALID,917.046,VALID,0,VALID,99.69,VALID,-0.0509425,VALID,18.6125,VALID,295,VALID,0,
2000-03-29, 03:37:00,VALID,917.043,VALID,0,VALID,99.7052,VALID,-0.0679233,VALID,18.6286,VALID,299,VALID,0,
2000-03-29, 03:38:00,VALID,917.033,VALID,0,VALID,99.7129,VALID,-0.0509425,VALID,18.6383,VALID,300,VALID,0,